Welcome to the New NWS' Forecast!
Most changes are behind the scenes, but click here for differences you might notice.
Latest weather observations around

Monticello, Monticello Municipal Airport/Ellis Field (KLLQ)

Using English Units (Switch to International System of Units)
Date/ Time (CDT) Wind (mph) Vis. (mi) Weather Sky Cond. Temp (°F) Rel. Humidity Wind Chill (°F) Heat Index (°F) Pressure Precip. (in)
Air Dwpt 6 hour Altimeter (inHg) Sea level (inHg) 1 hr 3 hr 6 hr
Max Min
Aug 17 03:53 SSW 10 10 Cloudy OVC007 79 76     90%   83 29.98 29.96      
Aug 17 03:51 SSW 11 10 Cloudy OVC007 79 75     89%   82 29.98        
Aug 17 02:53 SSW 10 10 Cloudy OVC005 77 75     94%   79 29.99 29.97      
Aug 17 02:41 SSW 11 10 Cloudy OVC006 77 75     94%   79 29.99        
Aug 17 02:03 S 7 10 Mostly Cloudy BKN008 BKN021 76 74     94%   78 30        
Aug 17 01:53 S 6 10 Mostly Clear FEW008 76 74     94%   78 30 29.99      
Aug 17 01:50 S 7 10 Mostly Clear FEW008 75 73     94%   77 30        
Aug 17 00:53 S 7 10 Clear CLR 77 74     90%   79 30 29.98      
Aug 16 23:53 S 7 10 Clear CLR 77 73     88%   79 29.99 29.98      
Aug 16 22:53 S 8 10 Clear CLR 78 73     85%   80 29.99 29.98      
Aug 16 21:53 S 9 10 Clear CLR 79 73     82%   82 29.97 29.96      
Aug 16 20:53 S 6 10 Clear CLR 81 75     82%   87 29.95 29.94      
Aug 16 19:53 S 8 10 Clear CLR 84 76     77%   93 29.95 29.94      
Aug 16 18:53 SE 3 10 Clear CLR 90 76     64%   102 29.94 29.93      
Aug 16 17:53 S 7 10 Mostly Clear FEW037 92 75     58%   103 29.97 29.95      
Aug 16 16:53 S 7 10 Mostly Clear FEW046 92 75     58%   103 29.96 29.94      
Aug 16 15:53 SSW 8 10 Mostly Clear FEW038 92 75     58%   103 29.96 29.95      
Aug 16 14:53 SSW 8 10 Partly Cloudy SCT037 92 75     58%   103 29.97 29.95      
Aug 16 13:53 SW 8 10 Mostly Cloudy SCT032 BKN041 BKN050 91 75     60%   102 29.97 29.96      
Aug 16 12:53 SW 8 10 Mostly Clear FEW030 89 75     63%   99 29.99 29.98      
Aug 16 11:53 SW 10 10 Partly Cloudy SCT024 SCT032 87 76     70%   98 30.02 30.01      
Aug 16 11:38 WSW 10 10 Mostly Clear FEW019 87 76     70%   98 30.02        
Aug 16 10:53 SSW 6 10 Cloudy OVC021 84 75     74%   92 30.03 30.02      
Aug 16 10:14 7 10 Mostly Cloudy BKN015 BKN019 84 76     77%   93 30.03        
Aug 16 09:53 SSW 11 10 Cloudy OVC014 82 75     79%   89 30.04 30.02      
Aug 16 09:26 SW 9 10 Cloudy OVC012 81 75     82%   87 30.03        
Aug 16 08:53 7 10 Cloudy OVC007 80 75     85%   85 30.03 30.02      
Aug 16 08:42 SSW 9 10 Cloudy OVC007 79 75     88%   83 30.03        
Aug 16 07:53 SSW 7 10 Cloudy OVC006 78 75     90%   80 30.02 30.01      
Aug 16 07:38 SSW 7 10 Cloudy OVC006 78 75     90%   80 30.01        
Aug 16 07:18 S 8 10 Cloudy OVC007 78 75     90%   80 30        
Aug 16 06:53 SSW 9 10 Cloudy OVC006 78 75     90%   80 30 29.98      
Aug 16 05:53 S 8 10 Cloudy OVC006 77 75     94%   79 29.98 29.97      
Aug 16 04:53 S 7 10 Cloudy OVC005 77 74     90%   79 29.96 29.95      
Aug 16 03:53 S 7 10 Cloudy OVC006 77 74     90%   79 29.95 29.93      
Aug 16 03:39 SSW 7 10 Mostly Cloudy BKN006 76 74     94%   78 29.95        
Aug 16 03:21 SSW 6 10 Partly Cloudy SCT006 76 74     94%   78 29.94        
Aug 16 02:53 S 5 10 Clear CLR 77 74     90%   79 29.94 29.93      
Aug 16 01:53 S 6 10 Clear CLR 76 73     91%   77 29.93 29.92      
Aug 16 00:53 S 6 10 Clear CLR 76 74     94%   78 29.93 29.92      
Aug 15 23:53 SSE 3 10 Clear CLR 77 74     90%   79 29.93 29.91      
Aug 15 22:53 S 5 10 Clear CLR 79 74     85%   83 29.92 29.91      
Aug 15 21:53 SSW 8 10 Clear CLR 80 74     82%   85 29.93 29.92      
Aug 15 20:53 SSW 7 10 Mostly Clear FEW036 FEW050 83 76     79%   91 29.93 29.92      
Aug 15 19:53 Calm 10 Clear CLR 84 78     82%   95 29.89 29.88      
Aug 15 18:53 SSE 5 10 Clear CLR 89 75     63%   99 29.88 29.87      
Aug 15 17:53 S 6 10 Mostly Clear FEW036 91 74     57%   101 29.86 29.85      
Aug 15 16:53 SW 6 10 Clear CLR 91 72     54%   99 29.87 29.85      
Aug 15 15:53 WSW 6 10 Mostly Clear FEW039 91 73     56%   100 29.87 29.85      
Aug 15 14:53 SW 9 10 Partly Cloudy SCT041 91 74     57%   101 29.88 29.86      
Aug 15 13:53 3 10 Partly Cloudy FEW028 SCT039 SCT048 89 75     63%   99 29.9 29.89      
Aug 15 13:05 6 10 Mostly Cloudy SCT026 BKN033 88 75     66%   98 29.92        
Aug 15 12:53 WNW 6 10 Mostly Cloudy BKN026 BKN035 87 76     70%   98 29.93 29.92      
Aug 15 11:53 W 9 10 Mostly Clear FEW023 86 76     72%   96 29.95 29.94      
Aug 15 10:53 SW 10 10 Mostly Clear FEW015 84 76     77%   93 29.96 29.94      
Aug 15 09:53 WSW 7 10 Mostly Clear FEW011 82 76     82%   89 29.95 29.94      
Aug 15 08:53 SSW 5 10 Mostly Clear FEW008 79 76     90%   83 29.94 29.93      
Aug 15 07:53 SSW 7 10 Clear CLR 79 75     88%   83 29.92 29.91      
Aug 15 06:53 SW 8 10 Clear CLR 78 75     90%   80 29.9 29.89      
Aug 15 05:53 SSW 8 10 Clear CLR 78 75     90%   80 29.87 29.86      
Aug 15 04:53 S 7 10 Partly Cloudy SCT120 78 76     93%   80 29.87 29.86      
Aug 15 03:53 S 9 10 Clear CLR 79 76     90%   83 29.86 29.85      
Aug 15 02:53 S 3 10 Partly Cloudy SCT080 79 75     88%   83 29.86 29.85      
Aug 15 01:53 SSE 3 10 Clear CLR 79 75     88%   83 29.86 29.85      
Aug 15 00:53 SE 3 10 Mostly Clear FEW055 79 76     90%   83 29.87 29.86      
Aug 14 23:53 Calm 6 Fog/Mist SCT080 78 76     93%   80 29.88 29.87      
Aug 14 22:53 Calm 6 Fog/Mist CLR 78 76     93%   80 29.88 29.87      
Aug 14 21:53 SSE 3 9 Clear CLR 80 77     90%   86 29.88 29.87      
Aug 14 20:53 Calm 10 Clear CLR 80 77     90%   86 29.87 29.85      
Aug 14 19:53 Calm 10 Clear CLR 81 77     88%   88 29.86 29.85      
Aug 14 18:53 Calm 10 Clear   83 76     79%   91 29.86 29.85      
Aug 14 17:53 Calm 10 Mostly Clear FEW050 FEW110 83 75     77%   90 29.86 29.85      
Aug 14 16:53 3 10 Clear CLR 85 75     72%   93 29.86 29.85      
Aug 14 15:53 NW 7 10 Clear CLR 85 75     72%   93 29.87 29.85      
Aug 14 14:53 W 9 10 Partly Cloudy SCT024 SCT033 87 74     65%   95 29.88 29.86      
Aug 14 13:53 WSW 8 10 Clear CLR 84 74     72%   91 29.9 29.89      
Aug 14 12:53 W 7 10 Clear CLR 79 73     82%   82 29.91 29.89 0   0
Aug 14 11:53 WSW 8 10 Clear   77 73     88%   79 29.93 29.91 0    
Aug 14 11:39 W 9 10 Partly Cloudy FEW009 FEW035 SCT110 76 73     91%   77 29.93   0    
Aug 14 10:53 WSW 7 9 Light Rain FEW049 FEW055 75 72     90%   76 29.92 29.91 0    
Aug 14 10:23 SW 13 10 Clear CLR 77 73     88%   79 29.93        
Aug 14 09:53 SW 6 10 Mostly Clear FEW004 77 74     90%   79 29.9 29.89 0 0  
Aug 14 08:53 SW 6 6 Light Rain and Fog/Mist FEW004 BKN110 76 73     91%   77 29.9 29.88 0    
Aug 14 05:53 S 5 4 Thunderstorms and Rain and Fog/Mist BKN022 OVC120 76 73     91%   77 29.86 29.85 2    
Aug 14 05:44 S 9 1 Thunderstorms and Heavy Rain and Fog/Mist VV015 76 74     94%   78 29.86   2    
Aug 14 05:34 S 11 0.75 Thunderstorms and Heavy Rain and Fog/Mist VV014 77 75     94%   79 29.89   1    
Aug 14 05:13 N 6 1.5 Thunderstorms and Heavy Rain and Fog/Mist FEW014 OVC021 76 74     94%   78 29.86   1    
Aug 14 05:04 E 3 0.5 Thunderstorms and Heavy Rain and Fog BKN016 OVC060 76 74     94%   78 29.86   0    
Aug 14 04:57   0.5 Thunderstorms and Heavy Rain and Fog BKN009 BKN020 OVC060 76 73     91%   77 29.87   0    
Aug 14 04:53 3 1 Thunderstorms and Heavy Rain and Fog/Mist FEW009 BKN020 OVC055 76 73     91%   77 29.88 29.87 1    
Aug 14 04:51 W 7 1.75 Thunderstorms and Heavy Rain and Fog/Mist SCT015 BKN023 OVC055 75 73     94%   77 29.89   0    
Notice The following observation data may not be complete
Aug 14 04:43   10 Thunderstorms and Rain FEW008 BKN022 OVC055          %         0    
Aug 14 04:21 Calm 3 Thunderstorms and Rain and Fog/Mist SCT011 BKN028 OVC045 76 74     94%   78 29.88   0    
Aug 14 03:53 E 3 10 Cloudy SCT042 SCT060 OVC100 76 74     94%   78 29.87 29.86 0 0  
Aug 14 03:34 Calm 10 Cloudy FEW016 BKN047 OVC100 76 74     94%   78 29.87   0    
Notice The following observation data may not be complete
Aug 14 03:05   2 Thunderstorms and Rain and Fog/Mist FEW006 BKN040 OVC049          %         0    
Aug 14 03:01 6 1 Thunderstorms and Heavy Rain and Fog/Mist FEW006 BKN024 OVC038 78 76     93%   80 29.88   0    
Aug 14 02:55 WSW 8 1.75 Heavy Rain and Fog/Mist FEW010 BKN024 OVC037 78 76     93%   80 29.89   0    
Aug 14 02:53 SW 8 3 Fog/Mist FEW010 SCT024 OVC037 78 76     93%   80 29.89 29.88 0    
Aug 14 02:46 Calm 8 Cloudy SCT010 BKN037 OVC050 78 76     93%   80 29.87   0    
Aug 14 02:40 Calm 6 Fog/Mist SCT010 BKN028 OVC038 77 76     96%   79 29.87   0    
Aug 14 01:53 Calm 3 Fog/Mist OVC007 77 76     96%   79 29.88 29.87      
Aug 14 01:22 Calm 7 Mostly Cloudy BKN007 78 76     93%   80 29.88        
Notice The following observation data may not be complete
Aug 14 01:04   10 Cloudy OVC006          %              
Aug 14 00:44 W 5 9 Cloudy OVC003 78 76     93%   80 29.89        
Aug 14 00:33 W 6 7 Thunderstorms OVC003 78 76     93%   80 29.88        
Aug 14 00:14 SE 5 8 Thunderstorms BKN005 BKN065 BKN095 77 76     96%   79 29.88        
Aug 13 21:11 E 3 9 Mostly Cloudy FEW009 BKN018 BKN055 78 76     93%   80 29.91        
Aug 13 18:53 Calm 10 Cloudy OVC060 79 76     90%   83 29.9 29.89 0   0
Notice The following observation data may not be complete
Aug 13 18:07   2 Light Rain and Fog/Mist FEW021 BKN060 OVC085          %         0    
Aug 13 17:53 ESE 6 10 Light Rain FEW015 BKN060 OVC110 81 75     82%   87 29.91 29.9 0    
Aug 13 16:53 E 3 10 Cloudy SCT015 BKN021 OVC080 82 74     77%   88 29.91 29.9      
Aug 13 16:40 Calm 10 Cloudy BKN015 BKN022 OVC029 83 74     74%   89 29.91        
Aug 13 16:30 Calm 10 Mostly Cloudy BKN014 82 74     77%   88 29.91        
Aug 13 16:04 E 6 10 Partly Cloudy SCT008 82 75     79%   89 29.91        
Aug 13 15:53 E 5 10 Mostly Cloudy BKN008 81 75     82%   87 29.91 29.9   0  
Aug 13 13:53 E 5 10 Cloudy BKN005 OVC012 77 74     90%   79 29.95 29.93 0    
Aug 13 13:42 ENE 5 10 Cloudy BKN005 OVC014 77 74     90%   79 29.95   0    
Aug 13 13:18 Calm 10 Mostly Cloudy BKN003 BKN019 76 73     91%   77 29.96   0    
Aug 13 13:00 Calm 10 Mostly Cloudy BKN003 BKN015 75 73     94%   77 29.96   0    
Aug 13 12:53 ENE 3 7 Thunderstorms and Rain BKN004 BKN018 BKN050 75 73     94%   77 29.96 29.95 0   1
Aug 13 12:49 Calm 2.5 Thunderstorms and Rain and Fog/Mist BKN004 BKN018 OVC050 75 73     94%   77 29.96   0    
Aug 13 12:43 E 7 0.75 Thunderstorms and Heavy Rain and Fog/Mist BKN004 BKN016 OVC030 75 73     94%   77 29.96   0    
Aug 13 11:53 ENE 5 10 Cloudy BKN004 BKN008 OVC028 75 73     94%   77 29.97 29.96 0    
Aug 13 11:31 E 3 1.75 Heavy Rain and Fog/Mist OVC004 74 72     94%   75 29.98   0    
Aug 13 10:41 ENE 8 10 Cloudy BKN003 BKN011 OVC080 74 72     94%   75 29.97   0    
Notice The following observation data may not be complete
Aug 13 10:09   10 Cloudy FEW003 BKN012 OVC080          %         0    
Aug 13 10:02 ENE 7 10 Light Rain FEW003 BKN055 OVC080 73 71     94%   74 29.99   0    
Aug 13 09:53 ENE 7 9 Light Rain SCT011 BKN055 OVC070 73 71     94%   74 29.99 29.98 0 0  
Aug 13 09:05 NE 6 6 Light Rain and Fog/Mist FEW014 BKN033 OVC040 72 70     93%   73 29.99   0    
Aug 13 03:53 NE 3 10 Clear CLR 74 70     87%   75 29.96 29.95      
Aug 13 01:53 NE 6 10 Clear CLR 76 71     85%   77 29.95 29.93      
Aug 12 23:53 Calm 10 Clear CLR 77 73     88%   79 29.96 29.95      
Aug 12 18:53 NE 6 10 Clear CLR 86 74     67%   94 29.93 29.92      
Aug 12 17:53 NE 3 10 Partly Cloudy SCT043 88 72     59%   95 29.95 29.93      
Aug 12 15:53 NNE 5 10 Mostly Cloudy BKN035 BKN050 BKN075 87 73     63%   95 29.96 29.95      
Aug 12 13:53 3 10 Clear CLR 88 72     59%   95 29.99 29.98      
Aug 12 11:53 Calm 10 Clear CLR 86 74     67%   94 30.01 30      
Aug 12 11:39 3 10 Partly Cloudy FEW020 SCT027 86 74     67%   94 30.01        
Notice The following observation data may not be complete
Aug 12 08:22   3 Fog/Mist OVC002          %              
Aug 12 08:13 Calm 1.25 Fog/Mist OVC002 75 73     94%   77 30.01        
Aug 12 03:05 Calm 2.5 Fog/Mist OVC002 74 73     97%   76 29.97        
Aug 12 02:53 W 3 3 Fog/Mist OVC002 74 73     97%   76 29.97 29.96      
Aug 12 01:53 Calm 7 Cloudy OVC003 74 73     97%   76 29.97 29.96      
Notice The following observation data may not be complete
Aug 12 00:09   6 Fog/Mist BKN007 OVC100          %              
Aug 11 23:53 Calm 8 Cloudy FEW007 OVC100 74 72     94%   75 29.97 29.96      
Aug 11 20:53 Calm 10 Partly Cloudy SCT085 SCT110 75 73     94%   77 29.97 29.96      
Aug 11 12:02 7 10 Partly Cloudy FEW021 SCT027 88 76     68%   99 30.04        
Aug 11 09:19 WSW 8 10 Partly Cloudy SCT005 80 76     87%   85 30.06        
Aug 11 08:53 SW 3 8 Mostly Cloudy BKN005 80 76     87%   85 30.06 30.05      
Aug 11 08:35 SSW 5 9 Cloudy BKN005 OVC032 79 76     90%   83 30.06        
Aug 11 07:53 Calm 10 Mostly Clear FEW004 76 74     94%   78 30.06 30.05      
Aug 11 07:50 Calm 10 Mostly Clear FEW004 75 73     94%   77 30.06        
Aug 11 06:53 Calm 10 Clear CLR 74 72     94%   75 30.06 30.04      
Aug 11 05:53 Calm 10 Clear   73 72     96%   75 30.04 30.02      
Aug 11 04:53 Calm 10 Clear CLR 74 72     94%   75 30.02 30.01      
Aug 11 03:53 Calm 10 Clear CLR 75 73     94%   77 30.02 30.01      
Aug 11 02:53 Calm 10 Clear CLR 74 72     94%   75 30.03 30.01      
Aug 11 01:53 Calm 10 Clear CLR 76 73     91%   77 30.01 30      
Aug 11 00:53 Calm 10 Clear CLR 76 74     94%   78 30.04 30.02      
Aug 10 23:53 Calm 10 Clear CLR 76 74     94%   78 30.05 30.04      
Aug 10 22:53 WNW 3 10 Clear CLR 76 74     94%   78 30.06 30.05      
Aug 10 21:53 Calm 10 Clear CLR 77 75     94%   79 30.05 30.04      
Aug 10 20:53 Calm 10 Clear CLR 78 75     90%   80 30.05 30.04      
Aug 10 19:53 Calm 10 Clear CLR 82 75     79%   89 30.04 30.03      
Aug 10 18:53 ESE 6 10 Clear CLR 84 74     72%   91 30.04 30.03      
Aug 10 18:24 ESE 5 10 Partly Cloudy SCT028 84 74     72%   91 30.04        
Aug 10 18:03 SSE 3 10 Mostly Cloudy BKN028 86 73     65%   93 30.03        
Aug 10 17:53 3 10 Partly Cloudy SCT029 87 72     61%   94 30.03 30.02      
Aug 10 16:53 Calm 10 Mostly Clear FEW028 86 72     63%   92 30.04 30.03      
Aug 10 15:53 3 10 Mostly Cloudy SCT024 BKN035 BKN043 85 73     68%   92 30.04 30.03      
Aug 10 15:44 E 5 10 Mostly Cloudy BKN024 BKN030 85 73     68%   92 30.04        
Aug 10 15:25 SSE 5 10 Mostly Clear FEW020 FEW028 84 74     72%   91 30.05        
Aug 10 15:16 ESE 5 10 Mostly Cloudy FEW019 BKN026 83 73     72%   89 30.05        
Aug 10 14:53 6 10 Partly Cloudy SCT018 84 74     72%   91 30.06 30.04      
Aug 10 14:49 5 10 Partly Cloudy FEW018 SCT024 84 73     70%   91 30.06        
Aug 10 14:20 E 7 10 Cloudy BKN023 OVC060 84 73     70%   90 30.07        
Aug 10 14:03 Calm 10 Cloudy SCT018 BKN060 OVC090 84 73     70%   90 30.07        
Aug 10 13:53 Calm 10 Mostly Cloudy BKN016 BKN060 BKN090 84 74     72%   91 30.08 30.07      
Aug 10 13:34 E 3 10 Cloudy BKN016 BKN025 OVC080 83 74     74%   89 30.09        
Aug 10 12:53 ESE 3 10 Cloudy FEW011 OVC038 81 74     79%   86 30.1 30.09     0
Aug 10 12:39 SE 3 10 Cloudy SCT027 OVC038 80 73     79%   84 30.11        
Aug 10 11:53 ENE 5 10 Cloudy OVC024 79 73     82%   82 30.12 30.11 0    
Aug 10 11:07 ENE 5 3 Light Rain and Fog/Mist BKN023 BKN028 OVC036 76 73     91%   77 30.13   0    
Aug 10 11:00 E 3 1.5 Light Rain and Fog/Mist BKN021 BKN028 OVC035 76 73     91%   77 30.13   0    
Aug 10 10:53 E 3 2 Light Rain and Fog/Mist FEW018 BKN025 OVC035 76 73     91%   77 30.13 30.12 0    
Aug 10 10:43 ENE 3 3 Light Rain and Fog/Mist FEW007 SCT010 OVC023 76 73     91%   77 30.13   0    
Aug 10 10:32 SE 6 4 Light Rain and Fog/Mist SCT007 BKN011 OVC022 76 72     88%   77 30.13   0    
Aug 10 10:29 SSE 6 2.5 Light Rain and Fog/Mist BKN007 BKN011 OVC024 76 72     88%   77 30.13   0    
Aug 10 10:14 E 3 5 Fog/Mist BKN007 BKN011 OVC026 78 75     90%   80 30.13        
Aug 10 09:58 E 3 10 Cloudy FEW007 BKN027 OVC033 78 74     87%   80 30.12        
Aug 10 09:53 E 3 10 Cloudy SCT027 BKN033 OVC042 79 74     85%   83 30.12 30.11 0 0  
Aug 10 09:35 Calm 10 Cloudy SCT005 BKN037 OVC044 78 74     87%   80 30.12   0    
Aug 10 09:17 Calm 10 Cloudy BKN005 OVC033 78 75     90%   80 30.12   0    
Aug 10 09:03 Calm 7 Cloudy FEW003 BKN035 OVC050 77 74     90%   79 30.12   0    
Aug 10 08:53 Calm 6 Light Rain and Fog/Mist BKN037 OVC050 77 74     90%   79 30.12 30.11 0    
Aug 10 07:53 Calm 10 Cloudy OVC045 76 74     94%   78 30.11 30.09      
Aug 10 06:53 Calm 10 Cloudy BKN065 OVC090 75 73     94%   77 30.08 30.07      
Aug 10 05:53 Calm 10 Cloudy FEW070 OVC090 75 73     94%   77 30.07 30.05      
Aug 10 04:53 Calm 10 Cloudy OVC090 75 73     94%   77 30.06 30.05      
Aug 10 04:33 Calm 10 Cloudy FEW015 OVC090 75 73     94%   77 30.06        
Aug 10 04:25 Calm 10 Cloudy BKN015 OVC090 75 73     94%   77 30.06        
Aug 10 03:53 Calm 10 Cloudy FEW013 OVC085 76 73     91%   77 30.06 30.05      
Aug 10 02:53 Calm 10 Mostly Cloudy BKN085 75 73     94%   77 30.06 30.05      
Aug 10 01:53 Calm 10 Partly Cloudy SCT080 76 74     94%   78 30.07 30.06      
Aug 10 00:53 Calm 6 Fog/Mist BKN085 76 74     94%   78 30.08 30.07      
Aug 09 23:53 Calm 10 Mostly Clear FEW085 77 75     94%   79 30.08 30.07      
Aug 09 22:53 Calm 10 Cloudy OVC085 78 75     90%   80 30.08 30.07      
Aug 09 21:53 Calm 10 Cloudy FEW031 OVC090 79 76     90%   83 30.07 30.06      
Aug 09 20:53 Calm 10 Mostly Clear FEW090 79 75     88%   83 30.04 30.03      
Aug 09 19:53 Calm 10 Mostly Cloudy BKN090 81 75     82%   87 30.03 30.02      
Aug 09 18:53 SE 5 10 Cloudy OVC090 84 74     72%   91 30.04 30.03      
Aug 09 17:53 Calm 10 Cloudy OVC090 86 73     65%   93 30.03 30.02      
Aug 09 16:53 E 5 10 Partly Cloudy SCT085 86 72     63%   92 30.03 30.02      
Aug 09 15:53 ENE 6 10 Mostly Cloudy FEW024 FEW036 BKN085 85 73     68%   92 30.03 30.02      
Aug 09 14:53 Calm 10 Cloudy FEW019 SCT038 OVC047 84 73     70%   90 30.05 30.04      
Aug 09 14:27 ESE 3 10 Cloudy FEW018 BKN029 OVC090 82 73     74%   87 30.06        
Aug 09 13:53 7 10 Cloudy FEW032 OVC050 82 72     72%   87 30.07 30.06      
Aug 09 13:28 E 6 10 Cloudy OVC031 82 72     72%   87 30.08        
Aug 09 12:53 E 7 10 Cloudy FEW014 OVC023 81 72     74%   85 30.08 30.07     0
Aug 09 11:53 E 6 10 Cloudy OVC016 79 72     79%   82 30.09 30.08      
Aug 09 11:20 E 6 10 Cloudy SCT008 OVC016 78 73     85%   80 30.09        
Aug 09 11:11 E 3 10 Cloudy BKN008 OVC014 77 73     88%   79 30.09        
Aug 09 10:53 ENE 3 10 Cloudy SCT006 OVC012 77 73     88%   79 30.09 30.08      
Aug 09 10:45 ENE 5 10 Cloudy FEW006 OVC012 76 73     91%   77 30.09        
Aug 09 10:30 Calm 9 Cloudy OVC010 76 73     91%   77 30.09        
Aug 09 10:04 E 6 10 Cloudy OVC007 74 72     94%   75 30.09        
Aug 09 09:53 ESE 5 7 Cloudy BKN005 OVC010 74 72     94%   75 30.09 30.08 0 0  
Aug 09 09:30 ENE 6 10 Cloudy SCT006 OVC013 75 73     94%   77 30.08   0    
Aug 09 09:16 ENE 6 3 Fog/Mist BKN004 OVC008 74 73     97%   76 30.08   0    
Aug 09 08:53 E 5 1 Light Rain and Fog/Mist OVC003 74        %     30.08 30.07 0    
Aug 09 08:16 ENE 6 1.5 Fog/Mist OVC003 74        %     30.07        
Aug 09 07:53 NE 5 2.5 Fog/Mist OVC003 73        %     30.07 30.05      
Aug 09 06:53 ENE 3 4 Fog/Mist BKN003 OVC019 72        %     30.05 30.04      
Aug 09 05:53 Calm 5 Fog/Mist BKN002 OVC027 71        %     30.04 30.03      
Aug 09 05:46 Calm 4 Fog/Mist BKN002 OVC027 71        %     30.04        
Aug 09 05:37 NE 3 2 Fog/Mist BKN002 OVC027 71        %     30.03        
Aug 09 05:14 NE 3 0.75 Fog/Mist VV002 71        %     30.03        
Aug 09 05:07 Calm 1 Fog/Mist BKN002 71        %     30.03        
Aug 09 04:58 Calm 2.5 Fog/Mist BKN002 BKN044 71        %     30.03        
Aug 09 04:53 Calm 4 Fog/Mist SCT002 BKN044 71        %     30.03 30.02      
Aug 09 03:53 Calm 3 Clear   71 70     96%   72 30.03 30.02      
Aug 09 03:23 NE 3 2 Fog/Mist SCT002 71 69     93%   72 30.03        
Aug 09 03:16 NE 3 1.5 Fog/Mist BKN002 71 69     93%   72 30.03        
Aug 09 02:56 NE 3 0.75 Fog/Mist VV002 71 70     96%   72 30.03        
Aug 09 02:53 Calm 1.25 Fog/Mist FEW002 71 70     96%   72 30.03 30.02      
Aug 09 02:51 Calm 2 Fog/Mist FEW002 72 70     94%   73 30.03        
Aug 09 01:53 NE 3 4 Fog/Mist CLR 71 70     96%   72 30.04 30.03      
Aug 09 01:31 Calm 3 Fog/Mist CLR 72 70     93%   73 30.04        
Aug 09 01:19 Calm 1.75 Fog/Mist FEW003 72 70     93%   73 30.04        
Aug 09 00:58 Calm 3 Fog/Mist CLR 73 71     94%   74 30.04        
Aug 09 00:53 Calm 1.75 Fog/Mist FEW003 73 71     94%   74 30.04 30.03     0
Aug 09 00:48 Calm 2 Fog/Mist FEW003 73 72     94%   75 30.04        
Aug 08 23:53 Calm 7 Clear CLR 73 71     94%   74 30.04 30.03      
Aug 08 22:53 Calm 7 Mostly Clear FEW032 74 72     94%   75 30.04 30.03 0    
Aug 08 21:53 NE 3 10 Partly Cloudy SCT023 75 72     90%   76 30.03 30.02      
Aug 08 20:53 Calm 10 Clear CLR 75 73     94%   77 30.01 30      
Aug 08 19:53 Calm 10 Clear CLR 77 73     88%   79 30 29.99      
Aug 08 18:53 3 10 Clear CLR 80 73     79%   84 29.99 29.98     0
Aug 08 17:53 NE 8 10 Partly Cloudy SCT060 81 73     77%   86 29.99 29.98      
Aug 08 17:00 E 6 10 Mostly Cloudy FEW024 SCT032 BKN048 77 74     90%   79 30        
Aug 08 16:53 E 7 10 Cloudy FEW024 BKN028 OVC047 76 73     91%   77 30 29.99 0    
Aug 08 16:25 ENE 7 5 Rain and Fog/Mist SCT024 SCT032 OVC043 77 73     88%   79 30.01   0    
Aug 08 15:53 E 6 10 Cloudy BKN022 BKN027 OVC050 80 73     79%   84 30 29.99   0  
Aug 08 15:43 ENE 8 10 Cloudy SCT024 BKN029 OVC050 82 73     74%   87 30        
Aug 08 14:53 6 10 Cloudy FEW018 SCT031 OVC065 83 75     77%   90 30.01 30 0    
Aug 08 14:06 5 4 Rain FEW014 BKN030 OVC047 78 73     85%   80 30.03   0    
Aug 08 13:21 NNE 5 10 Cloudy FEW015 BKN032 OVC043 79 72     79%   82 30.04        
Aug 08 12:53 NNE 7 10 Cloudy SCT015 BKN023 OVC028 79 72     79%   82 30.03 30.02      
Aug 08 11:53 NNE 8 10 Cloudy BKN015 BKN034 OVC070 80 72     76%   84 30.03 30.02      
Aug 08 10:53 NE 8 10 Cloudy OVC010 76 72     88%   77 30.05 30.03      
Aug 08 10:18 NE 10 10 Cloudy OVC007 75 71     88%   76 30.05        
Aug 08 09:53 NE 8 10 Cloudy OVC006 75        %     30.04 30.03      
Aug 08 08:53 NNE 8 10 Cloudy OVC006 73        %     30.03 30.02      
Aug 08 08:36 NE 8 10 Cloudy OVC006 73        %     30.03        
Aug 08 07:57 NNE 7 3 Fog/Mist OVC002 73        %     30.02        
Aug 08 07:53 NE 6 1.5 Fog/Mist OVC002 73        %     30.02 30.01      
Aug 08 07:02 NE 6 0.5 Fog VV002 73        %     30        
Aug 08 06:53 NE 7 1 Fog/Mist VV002 73        %     30 29.98      
Aug 08 06:44 NNE 7 1.25 Fog/Mist OVC002 73        %     30        
Aug 08 06:34 NNE 6 2 Fog/Mist OVC002 73        %     30        
Aug 08 06:08 NE 6 1.5 Fog/Mist OVC002 73        %     29.99        
Aug 08 05:53 6 2.5 Fog/Mist OVC002 73        %     29.99 29.98      
Aug 08 05:37 NNE 3 1.75 Fog/Mist OVC002 73        %     29.99        
Aug 08 05:27 NE 5 2 Fog/Mist OVC002 73        %     29.99        
Aug 08 04:53 NNE 3 5 Fog/Mist OVC003 73        %     29.98 29.97      
Aug 08 03:53 5 8 Cloudy OVC004 75 72     90%   76 29.98 29.97      
Aug 08 02:53 NNE 5 10 Cloudy OVC004 73 71     94%   74 29.98 29.97      
Aug 08 01:53 NE 6 10 Cloudy BKN005 BKN027 OVC050 74 72     94%   75 29.98 29.97      
Aug 08 01:40 NE 7 10 Cloudy OVC005 75 73     94%   77 29.99        
Aug 08 00:53 NNE 3 9 Cloudy OVC004 75 73     94%   77 30 29.99 0   1
Aug 08 00:46 N 3 9 Cloudy OVC004 75 73     94%   77 30   0    
Aug 07 23:53 Calm 4 Light Rain and Fog/Mist BKN005 BKN026 OVC032 75 73     94%   77 30 29.99 1    
Aug 07 23:48 Calm 4 Rain and Fog/Mist BKN005 BKN026 OVC031 75 73     94%   77 30   1    
Aug 07 23:40 Calm 3 Rain and Fog/Mist SCT005 BKN022 OVC031 75 73     94%   77 30   1    
Aug 07 23:30 Calm 1.75 Heavy Rain and Fog/Mist SCT005 BKN016 OVC026 74 73     97%   76 30   1    
Aug 07 23:27 NE 3 2 Heavy Rain and Fog/Mist SCT005 BKN014 OVC026 74 73     97%   76 30   1    
Aug 07 23:10 ENE 8 1.5 Heavy Rain and Fog/Mist SCT005 OVC016 74 73     97%   76 30   0    
Aug 07 23:05 ENE 8 1.25 Heavy Rain and Fog/Mist BKN004 OVC011 74 72     94%   75 29.99   0    
Aug 07 22:53 ENE 7 2.5 Heavy Rain and Fog/Mist BKN004 OVC009 75 73     94%   77 29.99 29.98 0    
Aug 07 22:15 NE 5 4 Light Rain and Fog/Mist BKN005 BKN014 OVC032 75 73     94%   77 29.99   0    
Aug 07 22:03 ENE 6 4 Light Rain and Fog/Mist SCT005 OVC032 75 73     94%   77 29.99   0    
Aug 07 21:53 ENE 9 7 Light Rain BKN005 BKN022 OVC034 75 73     94%   77 29.99 29.98 0 0  
Aug 07 21:30 NE 3 10 Light Rain OVC006 76 74     94%   78 29.98   0    
Aug 07 21:00 Calm 10 Light Rain BKN009 OVC012 76 74     94%   78 29.98   0    
Aug 07 20:53 Calm 10 Light Rain OVC011 76 74     94%   78 29.97 29.96 0    
Aug 07 20:40 Calm 10 Light Rain FEW008 BKN013 OVC019 76 74     94%   78 29.97   0    
Aug 07 20:33 Calm 10 Light Rain SCT008 SCT011 OVC019 76 74     94%   78 29.97   0    
Aug 07 20:29 Calm 10 Cloudy BKN008 BKN014 OVC019 76 74     94%   78 29.97   0    
Aug 07 20:26 Calm 10 Light Rain SCT007 OVC019 76 74     94%   78 29.97   0    
Aug 07 19:53 Calm 10 Cloudy BKN007 BKN030 OVC090 76 74     94%   78 29.96 29.95      
Aug 07 19:48 Calm 10 Cloudy SCT009 BKN030 OVC090 75 73     94%   77 29.96        
Aug 07 19:19 Calm 10 Mostly Cloudy BKN031 BKN041 76 74     94%   78 29.95        
Aug 07 19:08 Calm 10 Cloudy BKN029 BKN034 OVC045 76 74     94%   78 29.95        
Aug 07 18:53 Calm 10 Cloudy SCT029 BKN035 OVC110 76 74     94%   78 29.95 29.93 0   2
Aug 07 18:45 Calm 10 Light Rain FEW011 FEW029 OVC035 76 74     94%   78 29.95   0    
Aug 07 18:31 Calm 7 Light Rain SCT006 BKN029 OVC034 76 74     94%   78 29.95   0    
Aug 07 17:53 Calm 10 Light Rain BKN006 BKN055 OVC085 76 74     94%   78 29.96 29.95 0    
Aug 07 17:50 WNW 3 10 Cloudy BKN006 BKN070 OVC095 75 73     94%   77 29.96   0    
Aug 07 17:02 NE 5 10 Light Rain SCT004 SCT095 BKN120 75 73     94%   77 29.94   0    
Aug 07 16:53 NE 5 10 Mostly Cloudy BKN004 BKN090 BKN110 75 73     94%   77 29.94 29.93 1    
Aug 07 16:40 Calm 10 Light Rain FEW004 BKN090 OVC110 75 73     94%   77 29.94   1    
Aug 07 16:31 Calm 7 Light Rain FEW003 BKN024 OVC110 75 73     94%   77 29.94   1    
Aug 07 16:24 Calm 2 Light Rain and Fog/Mist FEW003 BKN028 OVC080 74 73     97%   76 29.94   1    
Aug 07 15:57 E 6 0.5 Heavy Rain and Fog BKN025 OVC034 74 72     94%   75 29.97   0    
Aug 07 15:53 SSE 7 0.25 Thunderstorms and Heavy Rain and Fog BKN020 OVC034 74 72     94%   75 29.98 29.97 1 1  
Aug 07 15:44 Calm 0.75 Thunderstorms and Heavy Rain and Fog/Mist BKN016 OVC034 75 73     94%   77 29.99   1    
Aug 07 15:39 SW 5 2 Light Rain and Fog/Mist BKN014 OVC034 75 73     94%   77 29.99   1    
Aug 07 15:21 WNW 8 0.75 Heavy Rain and Fog/Mist BKN012 BKN050 BKN065 78 75     90%   80 29.98   0    
Aug 07 15:18 WNW 7 2 Heavy Rain and Fog/Mist BKN012 BKN050 BKN095 79 75     88%   83 29.98   0    
Aug 07 14:53 3 10 Cloudy FEW012 BKN100 OVC120 81 76     85%   87 29.95 29.94 0    
Aug 07 14:38 Calm 10 Cloudy SCT009 OVC095 80 75     85%   85 29.96   0    
Aug 07 14:26 Calm 10 Light Rain BKN009 BKN042 BKN100 81 75     82%   87 29.95   0    
Aug 07 14:05 Calm 10 Mostly Cloudy FEW007 BKN042 BKN065 80 76     87%   85 29.95        
Aug 07 13:53 Calm 10 Mostly Cloudy SCT044 SCT065 BKN110 80 76     87%   85 29.96 29.95 0    
Aug 07 13:44 Calm 10 Partly Cloudy FEW065 FEW090 SCT120 79 76     90%   83 29.95   0    
Aug 07 13:19 W 3 10 Light Rain FEW012 SCT019 BKN120 79 75     88%   83 29.95   0    
Aug 07 13:09 WSW 3 10 Mostly Cloudy SCT012 BKN019 80 75     85%   85 29.96        
Aug 07 12:53 NW 3 10 Mostly Clear FEW013 81 75     82%   87 29.95 29.94     0
Aug 07 12:41 Calm 10 Partly Cloudy SCT015 81 74     79%   86 29.95        
Aug 07 11:59 Calm 10 Cloudy SCT007 OVC015 80 74     82%   85 29.97        
Aug 07 11:53 Calm 10 Cloudy BKN006 OVC015 80 74     82%   85 29.98 29.96      
Aug 07 10:53 3 10 Cloudy SCT005 OVC012 78 74     87%   80 29.97 29.96      
Aug 07 10:04 Calm 10 Cloudy FEW006 OVC010 76 74     94%   78 29.97        
Aug 07 09:53 Calm 10 Cloudy OVC008 76 73     91%   77 29.97 29.96 0 0  
Aug 07 09:07 Calm 3 Light Rain and Fog/Mist SCT003 OVC011 75 73     94%   77 29.97   0    
Aug 07 08:55 Calm 1.75 Light Rain and Fog/Mist BKN003 OVC011 76 73     91%   77 29.97   0    
Aug 07 08:53 Calm 3 Light Rain and Fog/Mist BKN003 OVC011 76 73     91%   77 29.97 29.96 0    
Aug 07 08:46 Calm 7 Cloudy BKN004 OVC011 76 73     91%   77 29.97        
Aug 07 08:27 Calm 3 Fog/Mist FEW004 OVC010 75 73     94%   77 29.96        
Aug 07 08:18 NW 3 3 Fog/Mist OVC008 75 73     94%   77 29.96        
Aug 07 08:12 NNW 3 2.5 Fog/Mist BKN006 OVC010 76 73     91%   77 29.96        
Aug 07 07:53 WSW 7 10 Cloudy OVC007 77 73     88%   79 29.95 29.94      
Aug 07 07:35 SW 8 10 Cloudy OVC008 77 73     88%   79 29.94        
Aug 07 07:26 SW 8 10 Thunderstorms OVC010 77 73     88%   79 29.94        
Aug 07 06:53 SSW 9 10 Cloudy OVC014 77 73     88%   79 29.93 29.92 0   0
Aug 07 06:29 SW 8 10 Light Rain BKN015 OVC055 77 73     88%   79 29.92   0    
Aug 07 06:17 SW 7 10 Cloudy SCT015 OVC055 77 73     88%   79 29.91        
Aug 07 05:53 SW 7 10 Cloudy OVC016 76 73     91%   77 29.91 29.9      
Aug 07 05:43 SSW 3 10 Cloudy BKN015 OVC060 77 73     88%   79 29.91        
Aug 07 04:53 SW 5 10 Cloudy SCT055 SCT070 OVC080 76 73     91%   77 29.91 29.89      
Aug 07 04:06 S 3 10 Partly Cloudy SCT006 SCT090 76 73     91%   77 29.91        
Aug 07 03:53 Calm 10 Clear CLR 76 73     91%   77 29.92 29.91      
Aug 07 03:22 SSW 3 10 Partly Cloudy SCT026 76 73     91%   77 29.93        
Aug 07 02:53 Calm 10 Cloudy BKN016 OVC026 76 73     91%   77 29.94 29.93      
Aug 07 02:50 Calm 10 Cloudy BKN016 OVC026 75 73     94%   77 29.94        
Aug 07 02:06 Calm 10 Cloudy BKN011 BKN020 OVC025 76 72     88%   77 29.94        
Aug 07 01:53 Calm 10 Cloudy SCT013 OVC024 75 72     90%   76 29.94 29.93      
Aug 07 00:53 Calm 10 Mostly Cloudy BKN027 75 72     90%   76 29.93 29.92      
Aug 07 00:44 SE 3 10 Mostly Cloudy BKN027 BKN090 75 72     90%   76 29.93        
Aug 06 23:53 SE 3 10 Mostly Cloudy SCT055 BKN080 75 72     90%   76 29.92 29.91      
Aug 06 22:53 Calm 10 Cloudy BKN075 OVC095 75 73     94%   77 29.92 29.91      
Aug 06 21:53 Calm 10 Cloudy OVC075 75 73     94%   77 29.94 29.92      
Aug 06 20:53 Calm 10 Cloudy OVC080 76 72     88%   77 29.91 29.9      
Aug 06 19:53 W 3 10 Partly Cloudy SCT095 76 72     88%   77 29.9 29.89      
Aug 06 18:53 SW 3 10 Clear CLR 77 73     88%   79 29.89 29.88     0
Aug 06 17:53 SW 6 10 Mostly Cloudy SCT010 BKN100 77 73     88%   79 29.89 29.88 0    
Aug 06 16:53 SW 3 10 Clear CLR 76 72     88%   77 29.9 29.89 0    
Aug 06 15:53 7 10 Mostly Clear FEW048 78 71     79%   79 29.92 29.91   0  
Aug 06 14:53 SW 6 10 Partly Cloudy SCT110 79 72     79%   82 29.92 29.9      
Aug 06 13:53 WSW 6 10 Mostly Cloudy FEW022 SCT050 BKN060 77 72     84%   78 29.93 29.92 0    
Aug 06 13:01 SW 11 10 Mostly Cloudy FEW022 SCT028 BKN050 84 74     72%   91 29.93        
Aug 06 12:53 WSW 9 10 Mostly Cloudy SCT022 BKN028 BKN035 84 74     72%   91 29.93 29.92      
Aug 06 11:53 SW 11 10 Mostly Cloudy BKN019 BKN025 83 73     72%   89 29.94 29.93      
Aug 06 11:21 SSW 11 10 Mostly Cloudy BKN015 82 73     74%   87 29.95        
Aug 06 10:53 SSW 10 10 Cloudy OVC014 80 73     79%   84 29.95 29.93      
Aug 06 10:35 SSW 8 10 Cloudy OVC014 80 73     79%   84 29.95        
Aug 06 10:25 SSW 10 10 Cloudy OVC015 80 73     79%   84 29.95        
Aug 06 09:53 S 10 10 Mostly Cloudy BKN012 81 73     77%   86 29.94 29.93      
Aug 06 09:41 S 11 10 Mostly Cloudy BKN010 81 73     77%   86 29.94        
Aug 06 09:14 S 9 10 Partly Cloudy SCT007 79 73     82%   82 29.93        
Aug 06 09:02 S 8 10 Mostly Cloudy BKN007 79 73     82%   82 29.93        
Aug 06 08:53 S 8 10 Mostly Cloudy BKN006 78 73     85%   80 29.94 29.93      
Aug 06 08:15 S 8 10 Cloudy OVC005 77 73     88%   79 29.95        
Aug 06 07:53 S 7 8 Cloudy OVC004 76 73     91%   77 29.94 29.92      
Aug 06 06:53 SSE 7 7 Cloudy OVC003 74 72     94%   75 29.93 29.91      
Aug 06 06:02 SSE 6 8 Mostly Cloudy BKN003 74 72     94%   75 29.93        
Aug 06 05:53 SSE 6 9 Partly Cloudy SCT003 74 72     94%   75 29.93 29.92      
Aug 06 05:50 SSE 5 9 Partly Cloudy SCT003 73 72     94%   75 29.93        
Aug 06 04:53 SSE 6 10 Clear CLR 74 72     94%   75 29.91 29.9      
Aug 06 03:53 S 3 10 Clear CLR 75 72     90%   76 29.92 29.91      
Aug 06 02:53 S 3 10 Clear CLR 75 72     90%   76 29.91 29.9      
Aug 06 01:53 S 3 10 Clear CLR 78 72     82%   79 29.93 29.92      
Aug 06 00:53 S 5 10 Clear CLR 78 72     82%   79 29.92 29.91      
Aug 05 23:53 S 6 10 Clear CLR 78 72     82%   79 29.94 29.92      
Aug 05 22:53 SE 3 10 Clear CLR 81 72     74%   85 29.96 29.95      
Aug 05 21:53 Calm 10 Clear CLR 82 72     72%   87 29.94 29.93      
Aug 05 20:53 Calm 10 Clear CLR 83 72     70%   88 29.92 29.91      
Aug 05 19:53 Calm 10 Clear CLR 86 72     63%   92 29.94 29.93      
Aug 05 18:53 SSE 6 10 Clear CLR 89 70     53%   94 29.96 29.94      
Aug 05 17:53 ESE 5 10 Clear CLR 90 70     52%   95 29.97 29.96      
Aug 05 16:53 ESE 6 10 Clear CLR 91 70     50%   97 29.98 29.97      
Aug 05 15:53 E 8 10 Mostly Cloudy SCT041 BKN055 91 70     50%   97 30 29.98      
Aug 05 14:53 5 10 Mostly Clear FEW039 90 70     52%   95 30.01 29.99      
Aug 05 13:53 S 7 10 Mostly Clear FEW036 89 69     52%   94 30.02 30.01      
Aug 05 12:53 7 10 Partly Cloudy SCT033 87 68     53%   91 30.04 30.03      
Aug 05 11:53 ESE 7 10 Clear CLR 85 69     59%   89 30.06 30.04      
Aug 05 10:53 ESE 7 10 Clear CLR 82 68     63%   85 30.07 30.06      
Aug 05 09:53 ESE 9 10 Clear CLR 80 66     62%   82 30.08 30.06      
Aug 05 08:53 ENE 8 10 Clear CLR 77 67     71%   78 30.08 30.07      
Aug 05 07:53 E 5 10 Clear CLR 73 68     84%   74 30.08 30.07      
Aug 05 06:53 ENE 3 10 Clear CLR 70 67     90%     30.07 30.06      
Aug 05 05:53 ENE 3 10 Clear CLR 69 67     93%     30.06 30.05      
Aug 05 04:53 Calm 10 Clear CLR 70 68     93%     30.05 30.04      
Aug 05 03:53 Calm 10 Clear CLR 70 68     93%     30.04 30.03      
Aug 05 02:53 Calm 10 Clear CLR 72 69     91%   73 30.04 30.03      
Aug 05 01:53 NE 3 10 Clear CLR 73 70     90%   74 30.04 30.03      
Aug 05 00:53 Calm 10 Clear CLR 73 70     90%   74 30.04 30.03      
Aug 04 23:53 Calm 10 Clear CLR 73 71     94%   74 30.04 30.03      
Aug 04 22:53 Calm 10 Clear CLR 74 71     91%   75 30.04 30.03      
Aug 04 21:53 Calm 10 Clear CLR 76 72     88%   77 30.04 30.02      
Aug 04 20:53 Calm 10 Clear CLR 77 73     88%   79 30.02 30.01      
Aug 04 19:53 Calm 10 Clear CLR 80 73     79%   84 30.01 30      
Aug 04 18:53 Calm 10 Clear CLR 81 70     69%   84 30 29.98      
Aug 04 17:53 Calm 10 Clear CLR 82 67     60%   85 30.01 30      
Aug 04 16:53 SSW 10 10 Partly Cloudy SCT042 81 69     67%   84 30.03 30.02      
Aug 04 15:53 NNE 5 10 Clear CLR 85 70     61%   89 30.02 30      
Aug 04 14:53 3 10 Clear CLR 91 71     52%   98 30.01 30      
Aug 04 13:53 3 10 Clear CLR 91 71     52%   98 30.02 30.01      
Aug 04 12:53 5 10 Mostly Cloudy FEW030 SCT038 BKN060 87 72     61%   94 30.05 30.03      
Aug 04 11:53 3 10 Mostly Clear FEW025 87 72     61%   94 30.05 30.04      
Aug 04 11:46 5 10 Partly Cloudy SCT025 SCT040 87 73     63%   95 30.05        
Aug 04 11:39 5 10 Mostly Cloudy BKN025 BKN036 BKN045 85 73     68%   92 30.05        
Aug 04 10:53 NNW 7 10 Mostly Clear FEW047 86 72     63%   92 30.05 30.04      
Aug 04 09:53 NW 6 10 Clear CLR 84 72     67%   90 30.04 30.03      
Aug 04 08:53 W 6 10 Clear CLR 81 72     74%   85 30.04 30.03      
Aug 04 07:53 W 6 10 Clear CLR 77 71     82%   78 30.03 30.02      
Aug 04 06:53 W 5 10 Clear CLR 74 70     87%   75 30.02 30.01      
Aug 04 05:53 WSW 5 10 Clear CLR 75 69     82%   76 30.01 30      
Aug 04 04:53 SW 5 10 Clear CLR 75 70     84%   76 30.01 29.99      
Jun 12 05:48 SSE 7 10 Cloudy OVC009 75 73     94%   77 30.03        
Jun 12 03:11 SE 3 10 Cloudy OVC009 74 71     91%   75 30        
Jun 11 22:53 SSE 6 10 Clear CLR 76 70     82%   77 30.02 30.01      
Jun 11 14:53 5 10 Mostly Clear FEW039 88 69     54%   92 30.02 30.01      
Jun 11 01:53 SSE 5 10 Clear CLR 70 64     81%     29.99        
Jun 08 02:53 3 10 Clear CLR 63 56     78%     29.95 29.94      
Jun 07 21:53 Calm 10 Clear CLR 67 59     76%     29.95 29.94      
Jun 07 20:53 NNW 3 10 Clear CLR 68 60     76%     29.94 29.93      
Jun 07 10:53 NE 13 10 Clear CLR 80 56     44%   80 29.95 29.94      
Jun 06 12:26 ENE 18 10 Partly Cloudy FEW019 SCT025 82 72     72%   87 29.79